Tracking 18973 objects as of 17-Mar-2018
HD Live streaming from Space Station
objects crossing your sky now


Track CHINASAT 2C (ZX 2C) now!
CHINASAT 2C (ZX 2C) is classified as:

NORAD ID: 41021
Int'l Code: 2015-063A
Perigee: 35,774.4 km
Apogee: 35,813.5 km
Inclination: 0.0 °
Period: 1,436.1 minutes
Semi major axis: 42164 km
RCS: Unknown
Launch date: November 3, 2015
Source: People's Republic of China (PRC)
Launch site: Xichang Space Center, China (XSC)

CHINASAT 2C (ZX 2C) is a Chinese geostationary satellite, believed to be a military communications spacecraft.
Your satellite tracking list
Your tracking list is empty

NASA's NSSDC Master Catalog

Two Line Element Set (TLE):
1 41021U 15063A   18076.13379422 -.00000334  00000-0  00000+0 0  9996
2 41021   0.0117 139.2376 0004642 230.3103 316.6786  1.00270965  8788
Source of the keplerian elements: AFSPC